Regional Weather Roundup
Issued by NWS Binghamton, NY

Home | Current Version | Previous Version | Text Only | Print | Product List | Glossary On
Versions: 1 2 3 4 5 6 7 8 9 10 11 12 13 14 15 16 17 18 19 20 21 22 23 24 25 26 27
000
ASUS41 KBGM 010810
RWRBGM

REGIONAL WEATHER ROUNDUP
NATIONAL WEATHER SERVICE BINGHAMTON NY
400 AM EDT SUN MAY 01 2016

Note: "fair" indicates few or no clouds below 12,000 feet with no
significant weather and/or obstructions to visibility.

* = Station(s) that does not report precipitation, such as rain,
snow, etc, also no thunder or fog.

NYZ009-015>018-022>025-036-037-044>046-055>057-062-010900
...Central New York...

CITY           SKY/WX    TMP DP  RH WIND       PRES   REMARKS
Binghamton     LGT RAIN  45  43  93 S8        30.10S FOG
Cortland       LGT RAIN  48  45  87 S3        30.10S
Dansville      RAIN      49  46  90 SE6       30.03F FOG
Elmira         LGT RAIN  48  45  89 SE6       30.06F FOG
Ithaca         LGT RAIN  47  45  93 SE12      30.09F
Hamilton       CLOUDY    52  43  71 S6        30.12R
Hornell        RAIN      46  45  93 SE7       30.05F
Monticello     CLOUDY    46  36  66 S6        30.17R
Norwich        DRIZZLE   50  41  71 S8        30.12S
Penn Yan       LGT RAIN  48  45  89 VRB5      30.06F FOG
Rome           CLOUDY    51  43  74 E6        30.13F
Sidney         RAIN      50  46  87 CALM      30.13S
Syracuse       LGT RAIN  51  42  71 E7        30.09F
$$

PAZ038>040-043-044-047-048-072-010900
...Northeast Pennsylvania...

CITY           SKY/WX    TMP DP  RH WIND       PRES   REMARKS
Hazleton       LGT RAIN  43  41  93 SE6       30.16S
Scranton       LGT RAIN  48  43  82 CALM      30.14R
$$
&&
KEY
WCI = Wind Chill Index
VSB = Visibility
HX  = Heat Index
$$




USA.gov is the U.S. government's official web portal to all federal, state and local government web resources and services.